User: anonymous   Login
Location: Unspecified
(0.0000°N, 0.0000°E)
Time: 05:27:29
(UTC+00:00)
Language:

N. Korean satellite - Orbit

View from above orbital plane
View from above orbital plane
View from above satellite
View from above satellite

Ground track
Ground track

The orbit data is extracted from the following two-line orbital elements,

1 39026U 12072A   17055.95346588 +.00003079 +00000-0 +12369-3 0  9991
2 39026 097.2308 077.6269 0040173 212.2124 147.6660 15.24951620232829
Epoch (UTC): 24 February 2017 22:52:59
Eccentricity: 0.0040173
inclination: 97.2308°
perigee height: 463 km
apogee height: 518 km
right ascension of ascending node: 77.6269°
argument of perigee: 212.2124°
revolutions per day: 15.24951620
mean anomaly at epoch: 147.6660°
orbit number at epoch: 23282

The dashed part of the orbit path shows where the satellite is in the earth's shadow,  

DLR